City of Derry Airport

Jump to: basic info | weather | frequencies | runways | comments

Related pages: nearby airports | nearby navaids | notams | map

Basic information (top)

Codes: LDY EGAE
Location: lon 55.042801, lat -7.161110, elev 22 ft / 7 m msl
Status: medium_airport
Scheduled airline service: yes
Links: Wikipedia Mobile

Weather (top)

Current conditions (rec'd 2014/04/24 19:20Z):

EGAE 241920Z 15007KT 120V210 9999 FEW049 13/06 Q1017

Airport forecast for Belfast International Airport 40nm (74km) SE (rec'd 2014/04/25 06:15Z):

TAF TAF EGAA 250503Z 2506/2606 09011KT 9999 FEW012 SCT020 PROB30 
      TEMPO 2506/2507 7000 SHRA BKN007 PROB30 2507/2509 BKN012 
      BECMG 2518/2521 8000 -RADZ BKN009 PROB40 2521/2606 3000 RADZ BKN004

Frequencies (top)

Verify before use: may be inaccurate or out of date.

APP: 123.625 MHz (APP)
TWR: 134.15 MHz (TWR)

Runways (top)

02/20: 3,955 x 148 ft (1,205 x 45 m) — paved — lighted — threshold 02 displaced 435 ft (133 m)

08/26: 6,076 x 147 ft (1,852 x 45 m) — paved — lighted — threshold 08 displaced 433 ft (132 m)

Latest comments (top)

Excellant airport: You have full services ils , fuel car ... [read]

More... (top)

See also NOTAMs and nearby airports and navaids, or visit the City of Derry Airport page at the main OurAirports website..